Regional Weather Roundup
Issued by NWS Midland/Odessa, TX

Skip options and go directly to product.
Home | Oldest Version | Previous Version | Current Version | All | Graphics & Text | Save Text | Print | Product List | Glossary On

Skip product version selection by date and time.   
034
ASUS44 KMAF 180910
RWRMAF
MIDLAND AREA WEATHER ROUNDUP
NATIONAL WEATHER SERVICE MIDLAND TX
400 AM CDT THU SEP 18 2014

...IN SOUTHWEST TEXAS AND SOUTHEAST NEW MEXICO...

CITY           SKY/WX    TMP DP  RH WIND       PRES   REMARKS
ALPINE         CLOUDY    69  62  78 CALM      30.06F
ANDREWS        FAIR      65  64  93 CALM      29.97F
ARTESIA        NOT AVBL
BIG SPRING     CLOUDY    74  71  91 N3        29.95F
CARLSBAD       HVY RAIN  68  32  26 W12G22    29.99S VSB 1
DRYDEN           N/A     77  71  82 NE7       29.88F
FORT STOCKTON  MOCLDY    72  67  84 SE8       29.94F
GUAD PASS      RAIN      62  58  86 S5          N/A  FOG
HOBBS          LGT RAIN  66  66 100 SE3       30.01F
MARFA          CLOUDY    64  61  88 NW3       30.05F
MIDLAND AIRPK  CLOUDY    71  71 100 SE3       29.94F
MIDLAND INTL   CLOUDY    71  68  90 SE6       29.93F
ODESSA         CLOUDY    71  67  87 S10       29.94F
PECOS          MOCLDY    73  65  75 E12       29.90F
PRESIDIO       FAIR      78  65  62 NE9       29.90S
SEMINOLE       CLOUDY    67  66  95 CALM      29.99F
SNYDER         CLOUDY    69  68  96 CALM      29.94F
WINK           CLOUDY    73  68  84 E8        29.92F
$$
...OTHER STATIONS IN TEXAS...

CITY           SKY/WX    TMP DP  RH WIND       PRES   REMARKS
ABILENE        CLOUDY    73  69  87 S6        29.91F
AMARILLO       MOCLDY    66  64  93 SW7       30.02S
AUSTIN         TSTM      73  72  96 S10       29.84F FOG
BROWNSVILLE    PTCLDY    78  76  93 S5        29.85F
CORPUS CHRISTI PTCLDY    77  75  93 S6        29.85F
DALLAS FTW     MOCLDY    75  70  84 S5        29.89S
DEL RIO        CLEAR     79  70  74 SE6       29.84F
EL PASO        CLOUDY    67  63  87 N10       29.99S
HOUSTON INT    LGT RAIN  76  75  97 SE7       29.86F
LUBBOCK        CLOUDY    67  64  90 S7        29.96F
SAN ANGELO     MOCLDY    71  67  87 CALM      29.91F
SAN ANTONIO    CLOUDY    80  75  84 S10       29.89S
WACO           CLOUDY    74  72  93 SW3       29.88F
WICHITA FALLS  NOT AVBL
$$
...OTHER LOCATIONS IN NEW MEXICO...

CITY           SKY/WX    TMP DP  RH WIND       PRES   REMARKS
ALAMAGORDO     CLOUDY    64  64 100 CALM      30.03F
ALBUQUERQUE    CLOUDY    63  56  78 N6        30.09S
CANNON AFB     MOCLDY    64  61  88 W2        30.04F
CLOVIS           N/A     64  61  88 CALM      30.07F
HOLLOMAN AFB   CLOUDY    67  67 100 CALM      30.01F
ROSWELL        CLOUDY    68  66  93 SW5       29.99F
RUIDOSO        CLOUDY    57  54  88 S3        30.18F
SANTA FE       PTCLDY    52  46  80 N6        30.14F
TRUTH OR CONSE LGT RAIN  64  61  90 CALM      30.05F
TUCUMCARI      PTCLDY    64  61  90 SW6       30.02F
$$

USA.gov is the U.S. government's official web portal to all federal, state and local government web resources and services.